Вернуться в каталог

STARLINK-36077

АктивенСвязьVLEO
NORAD 66903·PAYLOAD·🇺🇸 United States

Запущен Dec 4, 2025 с Vandenberg Space Force Base

Loading…

Ближайшие Пролёты (ближайшие 24 часа)

TLE

СвежийSource: CelesTrak SupGP

Эпоха: Sep 15, 2026, 02:54 UTC

1 66903C 25283AB  26258.12131944 -.00054545  00000+0 -16116-2 0  2581
2 66903  53.1575 220.9148 0001323  87.3828 299.1584 15.34417237    19

Отслеживайте STARLINK-36077 в реальном времени с AllMySat

Download on the App Store